Location: Briis
(48.6240°N, 2.1211°E)
Time: 01:43:34
(UTC+00:00)

SL-16 R/B - Pass Details

Date: 25 September 2020
Orbit: 842 x 846 km, 71.0° (Epoch: 23 October)

Event Time Altitude Azimuth Distance (km) Brightness Sun altitude
Exits shadow 03:06:52 42° 171° (S) 1,188 2.7 -25.5°
Maximum altitude 03:08:35 61° 112° (ESE) 955 2.5 -25.2°
Drops below altitude 10° 03:14:10 10° 34° (NE) 2,476 5.5 -24.4°
Sets 03:16:39 0° 31° (NNE) 3,416 6.3 -24.0°
